• In Uzbekistan
  • List of Countries
  • For 7 days
  • Water Temperature
  • Satellite Maps
  • Weather Map
  • Weather Widgets
  • user-avatar
    Login

    Hourly Weather Bad Schandau

    Today, 19 November, Monday

    Time Temperature Precipitation Wind Pressure Humidity
    00:00 -2°C° 0 mm 3 mps 708 mmHg 78%
    01:00 -2°C° 0 mm 3 mps 708 mmHg 81%
    02:00 -3°C° 0 mm 4 mps 708 mmHg 80%
    03:00 -3°C° 0 mm 4 mps 707 mmHg 78%
    04:00 -3°C° 0 mm 4 mps 707 mmHg 77%
    05:00 -4°C° 0 mm 4 mps 706 mmHg 75%
    06:00 -4°C° 0 mm 4 mps 706 mmHg 73%
    07:00 -5°C° 0 mm 5 mps 705 mmHg 71%
    08:00 -4°C° 0 mm 5 mps 705 mmHg 70%
    09:00 -4°C° 0 mm 5 mps 705 mmHg 69%
    10:00 -4°C° 0 mm 6 mps 704 mmHg 67%
    11:00 -3°C° 0.1 mm 6 mps 704 mmHg 67%
    12:00 -3°C° 0.1 mm 6 mps 703 mmHg 67%
    13:00 -2°C° 0.1 mm 6 mps 703 mmHg 67%
    14:00 -2°C° 0.1 mm 6 mps 703 mmHg 69%
    15:00 -3°C° 0.1 mm 6 mps 702 mmHg 71%
    16:00 -2°C° 0.1 mm 5 mps 702 mmHg 73%
    17:00 -2°C° 0 mm 5 mps 702 mmHg 76%
    18:00 -4°C° 0 mm 5 mps 702 mmHg 79%
    19:00 -4°C° 0 mm 5 mps 702 mmHg 82%
    20:00 -4°C° 0 mm 5 mps 702 mmHg 84%
    21:00 -3°C° 0 mm 4 mps 702 mmHg 85%
    22:00 -3°C° 0 mm 4 mps 702 mmHg 87%
    23:00 -4°C° 0 mm 4 mps 701 mmHg 88%

    Tomorrow, 20 November, Tuesday

    Time Temperature Precipitation Wind Pressure Humidity
    00:00 -4°C° 0 mm 4 mps 701 mmHg 88%
    01:00 -4°C° 0 mm 4 mps 701 mmHg 89%
    02:00 -4°C° 0 mm 3 mps 701 mmHg 89%
    03:00 -5°C° 0 mm 3 mps 700 mmHg 89%
    04:00 -5°C° 0 mm 3 mps 700 mmHg 90%
    05:00 -5°C° 0 mm 3 mps 700 mmHg 90%
    06:00 -4°C° 0 mm 2 mps 700 mmHg 90%
    07:00 -4°C° 0 mm 2 mps 699 mmHg 90%
    08:00 -3°C° 0 mm 2 mps 700 mmHg 83%
    09:00 -2°C° 0 mm 2 mps 700 mmHg 76%
    10:00 +1°C° 0 mm 1 mps 700 mmHg 69%
    11:00 +2°C° 0 mm 2 mps 700 mmHg 65%
    12:00 +3°C° 0 mm 2 mps 700 mmHg 60%
    13:00 +4°C° 0 mm 2 mps 700 mmHg 55%
    14:00 +4°C° 0 mm 2 mps 700 mmHg 61%
    15:00 +3°C° 0 mm 2 mps 700 mmHg 67%
    16:00 +2°C° 0 mm 2 mps 701 mmHg 72%
    17:00 +2°C° 0 mm 1 mps 701 mmHg 77%
    18:00 +1°C° 0 mm 1 mps 701 mmHg 81%
    19:00 0°C° 0 mm 1 mps 702 mmHg 85%
    20:00 0°C° 0 mm 1 mps 702 mmHg 86%
    21:00 0°C° 0 mm 1 mps 703 mmHg 86%
    22:00 0°C° 0 mm 1 mps 703 mmHg 86%
    23:00 0°C° 0 mm 1 mps 704 mmHg 87%

    Day after tomorrow, 21 November, Wednesday

    Time Temperature Precipitation Wind Pressure Humidity
    00:00 0°C° 0 mm 1 mps 704 mmHg 87%
    01:00 0°C° 0 mm 1 mps 704 mmHg 88%
    02:00 0°C° 0 mm 1 mps 704 mmHg 88%
    03:00 0°C° 0 mm 1 mps 704 mmHg 89%
    04:00 -3°C° 0 mm 2 mps 704 mmHg 89%
    05:00 -3°C° 0 mm 2 mps 704 mmHg 89%
    06:00 -2°C° 0 mm 2 mps 704 mmHg 89%
    07:00 -2°C° 0 mm 2 mps 704 mmHg 88%
    08:00 -1°C° 0 mm 2 mps 705 mmHg 83%
    09:00 +1°C° 0 mm 2 mps 705 mmHg 77%
    10:00 +2°C° 0 mm 2 mps 705 mmHg 72%
    11:00 +3°C° 0 mm 2 mps 705 mmHg 69%
    12:00 +4°C° 0 mm 2 mps 705 mmHg 67%
    13:00 +5°C° 0 mm 2 mps 705 mmHg 65%
    14:00 +4°C° 0 mm 2 mps 705 mmHg 72%
    15:00 +4°C° 0 mm 2 mps 706 mmHg 78%
    16:00 +3°C° 0 mm 2 mps 706 mmHg 85%
    17:00 +3°C° 0 mm 1 mps 706 mmHg 88%
    18:00 +2°C° 0 mm 1 mps 707 mmHg 91%
    19:00 +1°C° 0 mm 1 mps 707 mmHg 94%
    20:00 +1°C° 0 mm 1 mps 708 mmHg 94%
    21:00 +1°C° 0 mm 1 mps 708 mmHg 94%
    22:00 0°C° 0 mm 0 mps 708 mmHg 94%
    23:00 +1°C° 0 mm 1 mps 709 mmHg 94%

    22 November, Thursday

    Time Temperature Precipitation Wind Pressure Humidity
    00:00 +1°C° 0 mm 1 mps 709 mmHg 94%
    01:00 +1°C° 0 mm 1 mps 709 mmHg 93%
    02:00 +1°C° 0 mm 1 mps 709 mmHg 92%
    03:00 +1°C° 0 mm 1 mps 709 mmHg 92%
    04:00 +1°C° 0 mm 1 mps 710 mmHg 91%
    05:00 +1°C° 0 mm 1 mps 710 mmHg 90%
    06:00 +1°C° 0 mm 1 mps 710 mmHg 90%
    07:00 +1°C° 0 mm 1 mps 710 mmHg 89%
    08:00 +2°C° 0 mm 1 mps 711 mmHg 85%
    09:00 +4°C° 0 mm 1 mps 711 mmHg 81%
    10:00 +5°C° 0 mm 1 mps 712 mmHg 77%
    11:00 +6°C° 0 mm 1 mps 712 mmHg 74%
    12:00 +7°C° 0 mm 1 mps 712 mmHg 71%
    13:00 +9°C° 0 mm 1 mps 712 mmHg 68%
    14:00 +7°C° 0 mm 1 mps 712 mmHg 73%
    15:00 +6°C° 0 mm 1 mps 712 mmHg 79%
    16:00 +4°C° 0 mm 0 mps 712 mmHg 85%
    17:00 +3°C° 0 mm 0 mps 712 mmHg 86%
    18:00 +3°C° 0 mm 0 mps 713 mmHg 88%
    19:00 +2°C° 0 mm 0 mps 713 mmHg 89%
    20:00 +2°C° 0 mm 1 mps 713 mmHg 90%
    21:00 +2°C° 0 mm 1 mps 713 mmHg 90%
    22:00 +2°C° 0 mm 1 mps 714 mmHg 90%
    23:00 +2°C° 0 mm 1 mps 714 mmHg 90%

    23 November, Friday

    Time Temperature Precipitation Wind Pressure Humidity
    00:00 +2°C° 0 mm 1 mps 714 mmHg 90%
    01:00 +2°C° 0 mm 1 mps 714 mmHg 90%
    02:00 +2°C° 0 mm 1 mps 714 mmHg 90%
    03:00 +2°C° 0 mm 1 mps 714 mmHg 90%
    04:00 +2°C° 0 mm 1 mps 714 mmHg 89%
    05:00 +2°C° 0 mm 1 mps 715 mmHg 89%
    06:00 +1°C° 0 mm 1 mps 715 mmHg 88%
    07:00 +1°C° 0 mm 1 mps 715 mmHg 88%
    08:00 +3°C° 0 mm 1 mps 715 mmHg 83%
    09:00 +4°C° 0 mm 1 mps 715 mmHg 79%
    10:00 +6°C° 0 mm 1 mps 715 mmHg 74%
    11:00 +7°C° 0 mm 1 mps 715 mmHg 71%
    12:00 +8°C° 0 mm 1 mps 715 mmHg 67%
    13:00 +9°C° 0 mm 1 mps 714 mmHg 64%
    14:00 +8°C° 0 mm 1 mps 714 mmHg 70%
    15:00 +7°C° 0 mm 1 mps 714 mmHg 77%
    16:00 +6°C° 0 mm 1 mps 714 mmHg 83%
    17:00 +5°C° 0 mm 1 mps 714 mmHg 85%
    18:00 +4°C° 0 mm 1 mps 714 mmHg 86%
    19:00 +2°C° 0 mm 2 mps 714 mmHg 88%
    20:00 +3°C° 0 mm 1 mps 713 mmHg 87%
    21:00 +3°C° 0 mm 1 mps 713 mmHg 86%
    22:00 +3°C° 0 mm 1 mps 713 mmHg 86%
    23:00 +3°C° 0 mm 1 mps 713 mmHg 85%

    24 November, Saturday

    Time Temperature Precipitation Wind Pressure Humidity
    00:00 +3°C° 0 mm 1 mps 712 mmHg 83%
    01:00 +3°C° 0 mm 1 mps 712 mmHg 82%
    02:00 +3°C° 0 mm 1 mps 711 mmHg 81%
    03:00 +3°C° 0 mm 1 mps 711 mmHg 79%
    04:00 +3°C° 0 mm 1 mps 711 mmHg 78%
    05:00 +3°C° 0 mm 1 mps 711 mmHg 76%
    06:00 +3°C° 0 mm 1 mps 710 mmHg 74%
    07:00 +4°C° 0 mm 1 mps 710 mmHg 72%
    08:00 +4°C° 0 mm 1 mps 710 mmHg 71%
    09:00 +5°C° 0 mm 1 mps 710 mmHg 70%
    10:00 +6°C° 0 mm 1 mps 710 mmHg 69%
    11:00 +7°C° 0.1 mm 1 mps 710 mmHg 71%
    12:00 +7°C° 0.1 mm 1 mps 710 mmHg 73%
    13:00 +7°C° 0.1 mm 1 mps 709 mmHg 75%
    14:00 +7°C° 0.1 mm 1 mps 709 mmHg 78%
    15:00 +7°C° 0.1 mm 1 mps 709 mmHg 81%
    16:00 +7°C° 0.1 mm 1 mps 709 mmHg 84%
    17:00 +6°C° 0.1 mm 1 mps 709 mmHg 86%
    18:00 +6°C° 0.1 mm 1 mps 710 mmHg 89%
    19:00 +5°C° 0.1 mm 2 mps 710 mmHg 91%
    20:00 +4°C° 0.1 mm 2 mps 710 mmHg 92%
    21:00 +4°C° 0.1 mm 2 mps 711 mmHg 93%
    22:00 +4°C° 0.1 mm 2 mps 711 mmHg 94%
    23:00 +4°C° 0.1 mm 2 mps 711 mmHg 94%
    Show more